Location: Chuathbaluk
(61.5726°N, 159.2454°W)
Time: 14:25:59
(UTC+00:00)

ITAMSAT 1 - Pass Details

Date: 23 January 2021
Orbit: 784 x 796 km, 98.9° (Epoch: 01 March)

Event Time Altitude Azimuth Distance (km) Brightness Sun altitude
Rises 05:08:40 0° 198° (SSW) 3,274 11.2 -19.3°
Reaches altitude 10° 05:11:18 10° 210° (SSW) 2,348 10.6 -19.6°
Maximum altitude 05:15:43 28° 268° (W) 1,457 9.8 -20.2°
Drops below altitude 10° 05:20:09 10° 327° (NNW) 2,358 10.5 -20.7°
Sets 05:22:49 0° 339° (NNW) 3,291 11.1 -21.0°
